Home   Weather   Vancouver   Past weeks
Flag for Canada

Past Weather in Vancouver, British Columbia, Canada — Yesterday and Last 2 Weeks

Now
50 °F

Passing clouds.


Feels Like: 48 °F
Forecast: 56 / 49 °F
Wind: 6 mph from Northeast

Location: Vancouver International Airport

Current Time: Oct 17, 2019 at 1:21:43 am

Latest Report: Oct 17, 2019 at 12:00 am


Visibility: 20 mi

Pressure: 29.63 "Hg

Humidity: 88%

Dew Point: 46 °F

Location of VancouverLocation

Past Weather in Vancouver — Graph

°F

Vancouver Temperature Yesterday

Maximum temperature yesterday: 55 °F (at 10:00 am)
Minimum temperature yesterday: 46 °F (at 11:00 pm)
Average temperature yesterday: 53 °F

High & Low Weather Summary for the Past Weeks

 TemperatureHumidityPressure
High61 °F (Oct 3, 4:00 pm)100% (Oct 5, 3:00 am)30.50 "Hg (Oct 5, 3:00 am)
Low32 °F (Oct 10, 4:00 am)34% (Oct 9, 11:00 am)29.57 "Hg (Oct 16, 5:49 pm)
Average50 °F82%30.07 "Hg
* Reported Oct 2 12:00 am — Oct 17 12:00 am, Vancouver. Weather by CustomWeather, © 2019

Note: Actual official high and low records may vary slightly from our data, if they occured in-between our weather recording intervals... More about our weather records

Advertising

Vancouver Weather History for the Previous 24 Hours

Scroll right to see more
 ConditionsComfort  
Time TempWeatherWind HumidityBarometerVisibility
12:00 am
Thu, Oct 17
50 °FPassing clouds.6 mph88%29.63 "Hg20 mi
11:00 pm
Wed, Oct 16
46 °FPassing clouds.6 mph93%29.61 "Hg20 mi
10:41 pm48 °FPassing clouds.6 mph94%29.61 "Hg15 mi
10:00 pm50 °FLight rain. Mostly cloudy.3 mph94%29.60 "Hg15 mi
9:00 pm52 °FLight rain. Mostly cloudy.7 mph94%29.59 "Hg15 mi
8:00 pm52 °FLight rain. Mostly cloudy.3 mph88%29.59 "Hg15 mi
7:38 pm52 °FRain. Mostly cloudy.6 mph100%29.60 "Hg8 mi
7:00 pm54 °FLight rain. Mostly cloudy.7 mph94%29.58 "Hg15 mi
6:41 pm54 °FLight rain. Mostly cloudy.5 mph94%29.57 "Hg15 mi
6:00 pm54 °FCloudy.7 mph88%29.57 "Hg15 mi
5:49 pm54 °FMore clouds than sun.8 mph94%29.57 "Hg15 mi
5:00 pm54 °FLight rain. Mostly cloudy.9 mph94%29.59 "Hg12 mi
4:00 pm54 °FLight rain. Broken clouds.10 mph94%29.60 "Hg10 mi
3:37 pm54 °FRain. Fog.12 mph94%29.61 "Hg6 mi
3:00 pm55 °FLight rain. Cloudy.18 mph88%29.61 "Hg7 mi
2:09 pm55 °FLight rain. Mostly cloudy.15 mph82%29.61 "Hg15 mi
1:00 pm55 °FMostly cloudy.22 mph82%29.63 "Hg15 mi
12:00 pm55 °FMore clouds than sun.14 mph77%29.67 "Hg15 mi
11:00 am54 °FOvercast.13 mph82%29.69 "Hg15 mi
10:32 am54 °FMostly cloudy.18 mph82%29.69 "Hg15 mi
10:19 am55 °FLight rain. Cloudy.18 mph77%29.69 "Hg15 mi
10:00 am55 °FMostly cloudy.21 mph72%29.69 "Hg15 mi
9:00 am54 °FCloudy.16 mph82%29.71 "Hg15 mi
8:40 am52 °FCloudy.16 mph88%29.71 "Hg15 mi
8:00 am52 °FLight rain. Mostly cloudy.10 mph88%29.73 "Hg10 mi
7:00 am52 °FLight rain. Mostly cloudy.15 mph82%29.74 "Hg8 mi
6:00 am54 °FLight rain. Overcast.17 mph77%29.75 "Hg15 mi
5:00 am52 °FLight rain. Overcast.13 mph82%29.76 "Hg15 mi
4:00 am52 °FLight rain. Mostly cloudy.16 mph88%29.77 "Hg15 mi
3:00 am52 °FLight rain. Overcast.7 mph88%29.81 "Hg15 mi
2:34 am52 °FLight rain. Overcast.10 mph88%29.80 "Hg15 mi
2:02 am52 °FRain. Overcast.12 mph88%29.81 "Hg15 mi
1:25 am52 °FMostly cloudy.13 mph88%29.82 "Hg15 mi
1:00 am52 °FLight rain. Overcast.13 mph88%29.83 "Hg10 mi
Weather by CustomWeather, © 2019

See weather overview